"TOA5","AWS1","CR1000","7964","CR1000.Std.14","CPU:AWS1_114.CR1","64363","TBL110"
"TIMESTAMP","RECORD","Wind_spd_WVc(1)","Wind_spd_WVc(2)","Air_Temp_Avg","Humidity_Avg","SW_upper_Wm2_Avg","Rain_Tot","Press_Avg","Issui_Tot","Depth_cm","SR50A_Raw","Quality","Ground_Temp_Avg(1)","Ground_Temp_Avg(2)","SW_lower_Wm2_Avg","Albedo_Avg","SWC_per(1)","SWC_per(2)","Period(1)","Period(2)"
"TS","RN","","","","","","","","","","","","","","","","","","",""
"","","WVc","WVc","Avg","Avg","Avg","Tot","Avg","Tot","Smp","Smp","Smp","Avg","Avg","Avg","Avg","Smp","Smp","Smp","Smp"
"2015-12-18 00:00:00",214045,0.529,186.1,-6.074,88.2,0,0,865.0611,0,3.5,3.18,187,4.011,4.961,0.2275278,0,51.94,60.15,33.77,35.71
"2015-12-18 00:10:00",214046,0.472,191,-6.031,87.8,0,0,865.0611,0,3.576,3.18,185,4.017,4.961,0.2275278,0,51.94,60.15,33.77,35.71
"2015-12-18 00:20:00",214047,0.723,277.2,-6.053,87.9,0,0,865.0653,0.5,3.452,3.181,189,4.025,4.961,0.204775,0,51.94,60.09,33.77,35.7
"2015-12-18 00:30:00",214048,0.627,351.9,-6.059,88,0,0,865.2213,0,3.576,3.18,189,4.034,4.961,0.2275278,0,51.94,60.15,33.77,35.71
"2015-12-18 00:40:00",214049,1.041,241.7,-6.047,87.3,0,0,865.3477,0,3.477,3.181,195,4.046,4.963,0.2275278,0,51.99,60.15,33.79,35.71
"2015-12-18 00:50:00",214050,0.484,186,-6.054,87.5,0,0,865.3625,0,3.452,3.181,189,4.05,4.961,0.2199436,0,51.99,60.15,33.79,35.71
"2015-12-18 01:00:00",214051,0.753,219.5,-6.099,88.3,0,0,865.3161,0,3.379,3.182,190,4.05,4.961,0.1327246,0,51.94,60.09,33.77,35.7
"2015-12-18 01:10:00",214052,0.901,294.2,-6.194,87.7,0,0,865.3983,0,3.455,3.182,185,4.052,4.961,0.05308982,0,51.94,60.15,33.77,35.71
"2015-12-18 01:20:00",214053,0.812,234.7,-6.187,89.1,0,0,865.4089,0,3.356,3.183,177,4.048,4.962,0.1213482,0,51.94,60.09,33.77,35.7
"2015-12-18 01:30:00",214054,0.895,262.3,-6.26,86.9,0,0,865.6385,0,3.356,3.183,189,4.021,4.971,0.06446622,0,51.94,60.09,33.77,35.7
"2015-12-18 01:40:00",214055,0.88,259.2,-6.275,86.9,0,0,865.5732,0,3.432,3.183,189,4.012,4.974,0.07205047,0,51.94,60.15,33.77,35.71
"2015-12-18 01:50:00",214056,0.735,263.3,-6.256,87.2,0,0,865.5585,0,3.257,3.184,190,4.002,4.989,0.2161514,0,51.94,60.15,33.77,35.71
"2015-12-18 02:00:00",214057,0.624,255,-6.182,88.4,0,0,865.5311,0,3.379,3.182,193,3.958,4.999,0.2275278,0,51.94,60.09,33.77,35.7
"2015-12-18 02:10:00",214058,0.611,239.9,-6.149,88.9,0,0,865.5606,0,3.257,3.184,189,3.931,5,0.1858144,0,51.94,60.15,33.77,35.71
"2015-12-18 02:20:00",214059,0.648,240.1,-6.257,88.8,0,0,865.567,0,2.986,3.187,195,3.93,5.005,0.0379213,0,51.94,60.09,33.77,35.7
"2015-12-18 02:30:00",214060,0.852,280.7,-6.301,87.8,0,0,865.5606,0,3.037,3.187,200,3.923,5.014,0,0,51.94,60.09,33.77,35.7
"2015-12-18 02:40:00",214061,1.06,273.1,-6.378,88,0,0,865.548,0,3.186,3.186,193,3.923,5.034,0.1251403,0,51.94,60.15,33.77,35.71
"2015-12-18 02:50:00",214062,0.721,281.3,-6.397,88.4,0,0,865.5543,0,3.037,3.187,194,3.922,5.009,0.01137639,0,51.94,60.09,33.77,35.7
"2015-12-18 03:00:00",214063,0.574,216.8,-6.36,89.6,0,0,865.567,0,3.087,3.187,196,3.923,4.968,0.1896065,0,51.94,60.15,33.77,35.71
"2015-12-18 03:10:00",214064,0.716,250.9,-6.367,89.3,0,0,865.6006,0,3.11,3.186,196,3.923,4.971,0.2123593,0,51.88,60.09,33.76,35.7
"2015-12-18 03:20:00",214065,0.718,282.9,-6.264,87.4,0,0,865.8177,0,1.972,3.197,181,3.923,4.976,0.2275278,0,51.94,60.15,33.77,35.71
"2015-12-18 03:30:00",214066,1.419,286.3,-6.271,86.7,0,0,865.9695,0,3.703,3.18,188,3.923,4.975,0.2275278,0,51.94,60.09,33.77,35.7
"2015-12-18 03:40:00",214067,1.104,289.2,-6.378,85.7,0,0,866.1085,0,3.655,3.181,180,3.923,4.961,0.09480325,0,51.94,60.09,33.77,35.7
"2015-12-18 03:50:00",214068,1.447,284.2,-6.411,86,0,0,866.2203,0,3.655,3.181,184,3.923,4.953,0.087219,0,51.94,60.09,33.77,35.7
"2015-12-18 04:00:00",214069,0.874,268.8,-6.422,85.7,0,0,866.332,0,3.656,3.181,170,3.928,4.959,0.007584261,0,51.88,60.15,33.76,35.71
"2015-12-18 04:10:00",214070,0.86,219.3,-6.435,86.6,0,0,866.4859,0,3.655,3.181,183,3.94,4.959,0.1971908,0,51.94,60.15,33.77,35.71
"2015-12-18 04:20:00",214071,0.759,180.3,-6.451,86.5,0,0,866.5891,0,3.681,3.181,171,3.957,4.958,0.1554773,0,51.94,60.15,33.77,35.71
"2015-12-18 04:30:00",214072,0.619,163.3,-6.435,87.9,0,0,866.5828,0,3.556,3.182,187,3.95,4.931,0.2275278,0,51.94,60.09,33.77,35.7
"2015-12-18 04:40:00",214073,0.473,180.1,-6.432,88.8,0,0,866.6503,0,3.556,3.182,187,3.959,4.913,0.1478931,0,51.88,60.09,33.76,35.7
"2015-12-18 04:50:00",214074,0.659,185.7,-6.421,88.2,0,0,866.7894,0,3.556,3.182,187,3.974,4.903,0.04929769,0,51.94,60.15,33.77,35.71
"2015-12-18 05:00:00",214075,0.324,200.8,-6.311,87.2,0,0,866.842,0,3.48,3.182,188,3.971,4.916,0.2275278,0,51.94,60.09,33.77,35.7
"2015-12-18 05:10:00",214076,0.528,196.4,-6.297,87.4,0,0,866.9032,0,3.407,3.183,193,3.972,4.901,0.2275278,0,51.94,60.09,33.77,35.7
"2015-12-18 05:20:00",214077,0.518,201.7,-6.359,87.7,0,0,866.8315,0,3.482,3.183,192,3.968,4.888,0.0379213,0,51.88,60.09,33.76,35.7
"2015-12-18 05:30:00",214078,0.798,176.6,-6.416,84.4,0,0,866.8315,0,3.359,3.184,192,3.976,4.88,0.03412917,0,51.88,60.09,33.76,35.7
"2015-12-18 05:40:00",214079,0.447,209.9,-6.504,84.3,0,0,867.0107,0,3.362,3.185,192,3.929,4.909,0,0,51.88,60.03,33.76,35.69
"2015-12-18 05:50:00",214080,0.432,255,-6.559,85,0,0,867.1793,0,3.186,3.186,193,3.926,4.915,0.05688196,0,51.94,60.09,33.77,35.7
"2015-12-18 06:00:00",214081,0.378,308.4,-6.53,83.9,0,0,867.3373,0,3.457,3.183,192,3.899,4.919,0.05308982,0,51.94,60.09,33.77,35.7
"2015-12-18 06:10:00",214082,0.331,215.5,-6.46,82.7,0,0,867.5208,0,3.262,3.186,193,3.865,4.922,0.2275278,0,51.94,60.09,33.77,35.7
"2015-12-18 06:20:00",214083,0.302,215.8,-6.499,85.4,0,0,867.6683,0,3.237,3.186,193,3.846,4.936,0.2275278,0,51.94,60.09,33.77,35.7
"2015-12-18 06:30:00",214084,0.084,220.5,-6.505,86.9,0,0,867.8432,0,3.212,3.186,193,3.858,4.925,0.2275278,0,51.88,60.03,33.76,35.69
"2015-12-18 06:40:00",214085,0.134,196.8,-6.436,87.4,0,0,867.9255,0,3.285,3.185,193,3.838,4.943,0.2313199,0,51.88,60.09,33.76,35.7
"2015-12-18 06:50:00",214086,0.318,167,-6.489,88,0,0,868.0961,0,3.186,3.186,192,3.836,4.941,1.008707,0,51.88,60.09,33.76,35.7
"2015-12-18 07:00:00",214087,0.191,201.4,-6.45,88.6,0.08652531,0,868.0961,0,3.161,3.186,188,3.838,4.939,2.514182,4.773,51.88,60.09,33.76,35.7
"2015-12-18 07:10:00",214088,0.542,249.5,-6.413,87.8,0.9635774,0,868.2879,0,3.085,3.186,193,3.839,4.926,5.764038,6.597,51.88,60.09,33.76,35.7
"2015-12-18 07:20:00",214089,0.502,354.5,-6.22,84.7,2.823872,0,868.3828,0,3.158,3.185,192,3.836,4.938,12.49507,4.482,51.94,60.03,33.77,35.69
"2015-12-18 07:30:00",214090,0.106,294.4,-6.115,83.6,5.651677,0,868.4882,0,3.006,3.185,192,3.836,4.949,22.44183,3.968,51.88,60.09,33.76,35.7
"2015-12-18 07:40:00",214091,0.201,165.9,-5.952,83.7,7.12654,0,868.5682,0,2.858,3.187,179,3.836,4.931,28.07693,3.941,51.88,60.09,33.76,35.7
"2015-12-18 07:50:00",214092,0.371,188.1,-6.026,84.6,9.466657,0,868.5682,0,2.955,3.185,188,3.836,4.922,34.23156,3.635,51.88,60.09,33.76,35.7
"2015-12-18 08:00:00",214093,0.288,162.8,-5.75,82.9,12.55404,0,868.6019,0,2.975,3.183,176,3.838,4.912,51.78154,4.134,51.88,60.03,33.76,35.69
"2015-12-18 08:10:00",214094,0.3,173,-5.457,82.2,11.90116,0,868.6019,0,2.525,3.186,189,3.837,4.887,54.42845,4.572,51.88,60.09,33.76,35.7
"2015-12-18 08:20:00",214095,0.76,254.5,-5.388,80.1,12.67203,0,868.6462,0,2.723,3.184,193,3.859,4.875,59.25583,4.681,51.88,60.09,33.76,35.7
"2015-12-18 08:30:00",214096,0.66,275.5,-5.379,75.29,14.11149,0,868.8444,0,2.848,3.183,193,3.875,4.876,61.70555,4.425,51.88,60.09,33.76,35.7
"2015-12-18 08:40:00",214097,0.29,283.3,-5.288,75,13.25017,0,868.9223,0,2.599,3.185,189,3.878,4.877,68.72098,5.186,51.88,60.09,33.76,35.7
"2015-12-18 08:50:00",214098,0.368,292,-5.263,74.48,13.86765,0,868.9708,0,2.919,3.181,192,3.866,4.888,70.32506,5.073,51.88,60.09,33.76,35.7
"2015-12-18 09:00:00",214099,0.321,227,-4.823,74.5,14.65031,0,869.0994,0,2.666,3.181,188,3.873,4.889,68.55791,4.684,51.94,60.03,33.77,35.69
"2015-12-18 09:10:00",214100,0.521,281.2,-4.817,72.42,17.33653,0,869.1077,0,2.717,3.181,194,3.903,4.946,73.0023,4.229,51.88,60.03,33.76,35.69
"2015-12-18 09:20:00",214101,0.241,287.5,-4.63,71.12,24.30968,0,869.1268,0,2.488,3.181,193,3.916,4.914,88.77757,3.697,51.88,60.09,33.76,35.7
"2015-12-18 09:30:00",214102,0.235,326.9,-4.449,73.52,28.93879,0,869.348,0,2.586,3.179,194,3.886,4.903,108.1098,3.757,51.88,60.03,33.76,35.69
"2015-12-18 09:40:00",214103,0.413,294.6,-4.307,74.39,28.92305,0,869.3733,0,2.561,3.179,188,3.88,4.874,94.65916,3.264,51.88,60.03,33.76,35.69
"2015-12-18 09:50:00",214104,0.627,290.1,-4.417,75.3,26.93672,0,869.5399,0,2.569,3.181,189,3.879,4.877,86.84681,3.207,51.88,60.03,33.76,35.69
"2015-12-18 10:00:00",214105,0.613,328.5,-4.45,75.77,32.54666,0,869.5662,0,2.504,3.18,177,3.872,4.88,111.9158,3.405,51.88,60.03,33.76,35.69
"2015-12-18 10:10:00",214106,0.467,288.4,-4.16,75.61,32.37189,0,869.5019,0,2.335,3.181,177,3.845,4.867,112.7288,3.465,51.88,60.03,33.76,35.69
"2015-12-18 10:20:00",214107,0.964,304,-4.154,75.16,41.85103,0,869.3763,0,2.341,3.18,177,3.833,4.842,149.7735,3.56,51.88,60.03,33.76,35.69
"2015-12-18 10:30:00",214108,0.471,285.6,-4.01,75.9,40.62574,0,869.3179,0,2.37,3.178,180,3.818,4.814,137.7692,3.434,51.88,60.03,33.76,35.69
"2015-12-18 10:40:00",214109,0.54,315.1,-3.631,75.36,45.8567,0,869.278,0,2.351,3.177,178,3.803,4.794,158.8435,3.452,51.82,60.03,33.75,35.69
"2015-12-18 10:50:00",214110,0.533,335.7,-3.655,75.32,50.25098,0,869.2686,0,2.133,3.181,174,3.792,4.761,135.195,2.805,51.88,60.03,33.76,35.69
"2015-12-18 11:00:00",214111,0.523,321.4,-3.869,76.1,50.45489,0,869.2747,0,2.455,3.177,183,3.804,4.759,206.6814,4.306,51.88,60.03,33.76,35.69
"2015-12-18 11:10:00",214112,0.474,303,-3.391,77.43,55.1687,0,869.2683,0,2.353,3.176,196,3.807,4.744,209.4593,3.87,51.88,60.03,33.76,35.69
"2015-12-18 11:20:00",214113,0.861,310.8,-3.525,76.38,49.84127,0,869.2135,0,2.158,3.18,178,3.801,4.749,142.8275,2.885,51.88,60.03,33.76,35.69
"2015-12-18 11:30:00",214114,0.315,1.325,-3.362,77.55,73.71018,0,869.0155,0,2.002,3.177,187,3.814,4.746,186.968,2.593,51.88,60.03,33.76,35.69
"2015-12-18 11:40:00",214115,0.687,348.8,-3.359,78.33,38.42774,0,869.0113,0,2.257,3.179,186,3.792,4.768,117.0573,3.062,51.88,60.03,33.76,35.69
"2015-12-18 11:50:00",214116,0.462,325.4,-3.464,79.47,43.94775,0,868.9681,0,1.907,3.181,182,3.792,4.775,146.5766,3.333,51.88,60.03,33.76,35.69
"2015-12-18 12:00:00",214117,0.504,327.9,-3.409,79.19,39.52423,0,868.907,0,1.713,3.183,192,3.789,4.793,132.1889,3.345,51.82,60.03,33.75,35.69
"2015-12-18 12:10:00",214118,0.577,299.5,-3.606,80.2,37.80023,0,868.8764,0,1.773,3.183,192,3.775,4.742,123.3802,3.265,51.88,60.03,33.76,35.69
"2015-12-18 12:20:00",214119,0.368,303.1,-3.483,79.79,41.52168,0,868.6918,0,1.624,3.184,178,3.769,4.72,141.1869,3.398,51.88,60.03,33.76,35.69
"2015-12-18 12:30:00",214120,0.18,320,-3.249,78.89,38.65144,0,868.6749,0,1.35,3.185,189,3.763,4.732,134.0556,3.469,51.88,59.97,33.76,35.67
"2015-12-18 12:40:00",214121,0.394,317.6,-3.096,78.96,33.45386,0,868.6717,0,1.655,3.184,189,3.762,4.735,111.7851,3.343,51.88,59.97,33.76,35.67
"2015-12-18 12:50:00",214122,0.481,306.7,-3.579,79.52,35.24171,0,868.6761,0,1.534,3.185,185,3.78,4.705,112.749,3.199,51.82,59.97,33.75,35.67
"2015-12-18 13:00:00",214123,0.311,286.9,-3.491,80,37.18711,0,868.6779,0,1.682,3.183,173,3.788,4.702,117.4247,3.157,51.88,60.03,33.76,35.69
"2015-12-18 13:10:00",214124,0.364,298.8,-3.28,79.88,41.12326,0,868.6797,0,1.571,3.183,177,3.781,4.709,127.2982,3.095,51.82,60.03,33.75,35.69
"2015-12-18 13:20:00",214125,0.474,297.5,-3.119,79.78,38.28286,0,868.6674,0,1.419,3.183,177,3.798,4.723,124.5258,3.259,51.82,60.03,33.75,35.69
"2015-12-18 13:30:00",214126,0.372,297.8,-2.899,78.94,34.40986,0,868.6693,0,1.819,3.179,193,3.787,4.718,114.0048,3.315,51.82,59.97,33.75,35.67
"2015-12-18 13:40:00",214127,0.172,311.8,-2.754,79.21,33.16797,0,868.6845,0,1.938,3.177,193,3.778,4.721,114.0668,3.439,51.82,59.97,33.75,35.67
"2015-12-18 13:50:00",214128,0.52,316.2,-2.938,78.32,32.35057,0,868.6872,0,1.866,3.179,189,3.783,4.727,107.2259,3.315,51.82,59.97,33.75,35.67
"2015-12-18 14:00:00",214129,0.295,293.2,-2.914,79.2,28.61119,0,868.6898,0,1.622,3.18,176,3.737,4.736,96.75034,3.381,51.82,59.97,33.75,35.67
"2015-12-18 14:10:00",214130,0.496,293.4,-2.949,78.96,28.4259,0,868.6906,0,1.873,3.179,170,3.745,4.743,92.89754,3.269,51.88,59.97,33.76,35.67
"2015-12-18 14:20:00",214131,0.375,313.7,-3.001,79.02,28.39891,0,868.7233,0,1.717,3.18,170,3.761,4.78,94.10085,3.313,51.82,59.97,33.75,35.67
"2015-12-18 14:30:00",214132,0.457,39.95,-2.904,79.22,23.88689,0,868.869,0,1.71,3.179,171,3.774,4.807,79.7915,3.34,51.88,59.97,33.76,35.67
"2015-12-18 14:40:00",214133,0.539,29.9,-2.796,79.29,23.69472,0,868.6872,0,1.562,3.181,171,3.777,4.81,78.26546,3.305,51.88,59.97,33.76,35.67
"2015-12-18 14:50:00",214134,0.621,104,-3.023,79.18,21.97252,0,868.6873,0,1.662,3.181,170,3.775,4.805,68.10201,3.1,51.82,59.97,33.75,35.67
"2015-12-18 15:00:00",214135,0.233,1.587,-2.835,79.66,19.53926,0,868.7256,0,1.658,3.18,176,3.778,4.808,64.29711,3.292,51.82,59.97,33.75,35.67
"2015-12-18 15:10:00",214136,0.45,304.8,-2.951,79.25,16.65006,0,868.9265,0,1.682,3.181,172,3.785,4.821,53.71113,3.226,51.88,59.97,33.76,35.67
"2015-12-18 15:20:00",214137,0.181,307.6,-2.989,80.2,12.80902,0,868.9714,0,1.682,3.181,174,3.769,4.792,42.79021,3.347,51.82,59.97,33.75,35.67
"2015-12-18 15:30:00",214138,0.395,38.56,-3.069,80.6,11.53131,0,869.0024,0,1.73,3.18,171,3.768,4.774,38.10119,3.307,51.82,59.97,33.75,35.67
"2015-12-18 15:40:00",214139,0.143,26.87,-2.873,81.1,9.034795,0,869.0755,0,1.606,3.181,176,3.766,4.782,31.99057,3.54,51.82,59.97,33.75,35.67
"2015-12-18 15:50:00",214140,0.181,318.6,-3.028,81.3,6.597174,0,869.2561,0,1.707,3.181,177,3.744,4.774,22.66887,3.438,51.82,59.97,33.75,35.67
"2015-12-18 16:00:00",214141,0.123,339.1,-3.145,81.9,5.004925,0,869.4217,0,1.706,3.182,176,3.76,4.719,16.63407,3.321,51.82,59.97,33.75,35.67
"2015-12-18 16:10:00",214142,0.274,37.84,-3.223,81.7,3.668198,0,869.274,0,1.658,3.183,176,3.767,4.732,11.69849,3.191,51.88,59.97,33.76,35.67
"2015-12-18 16:20:00",214143,0.055,26.74,-3.314,81,2.056239,0,869.3082,0,1.755,3.181,175,3.781,4.741,7.191211,3.629,51.82,59.97,33.75,35.67
"2015-12-18 16:30:00",214144,0.07,300.3,-3.205,82.9,0.9357271,0,869.2956,0,1.658,3.183,176,3.743,4.742,4.757499,5.177,51.82,59.97,33.75,35.67
"2015-12-18 16:40:00",214145,0.139,332.6,-3.364,84.1,0.2516241,0,869.4388,0,1.658,3.183,177,3.708,4.742,1.81202,4.114,51.82,59.91,33.75,35.66
"2015-12-18 16:50:00",214146,0.012,8.94,-3.423,85.3,0,0,869.5189,0,1.583,3.184,176,3.714,4.73,0.3752928,0,51.82,59.97,33.75,35.67
"2015-12-18 17:00:00",214147,0.023,2.603,-3.576,86.6,0,0,869.7823,0,1.636,3.185,176,3.744,4.702,0.02653586,0,51.82,59.97,33.75,35.67
"2015-12-18 17:10:00",214148,0.171,276.7,-3.739,87.4,0,0,870.014,0,1.613,3.186,175,3.746,4.688,0,0,51.82,59.97,33.75,35.67
"2015-12-18 17:20:00",214149,0.276,259.2,-3.915,87.4,0.01965814,0,870.0267,0,1.564,3.187,176,3.746,4.698,0,0,51.82,59.91,33.75,35.66
"2015-12-18 17:30:00",214150,0.175,282.7,-3.996,87.4,0,0,870.0963,0,1.691,3.187,177,3.746,4.698,0,0,51.82,59.97,33.75,35.67
"2015-12-18 17:40:00",214151,0.27,275.8,-4.112,87.8,0,0,870.2521,0,1.642,3.188,177,3.745,4.698,0,0,51.82,59.91,33.75,35.66
"2015-12-18 17:50:00",214152,0.008,265.5,-4.11,87.8,0,0,870.2753,0,1.591,3.188,177,3.719,4.698,0,0,51.82,59.97,33.75,35.67
"2015-12-18 18:00:00",214153,0.17,213.3,-4.073,88.2,0,0,870.1278,0,1.467,3.189,177,3.712,4.693,0.1175159,0,51.82,59.91,33.75,35.66
"2015-12-18 18:10:00",214154,0.194,147.1,-4.102,88,0,0,870.2184,0,1.467,3.189,176,3.703,4.674,0.1061434,0,51.82,59.91,33.75,35.66
"2015-12-18 18:20:00",214155,0.337,269.1,-4.226,87.4,0,0,870.0289,0,1.495,3.19,176,3.703,4.668,0.03411753,0,51.82,59.91,33.75,35.66
"2015-12-18 18:30:00",214156,0.366,15.51,-4.285,87.2,0,0,870.0267,0,1.596,3.19,175,3.702,4.668,0.0416992,0,51.82,59.91,33.75,35.66
"2015-12-18 18:40:00",214157,0.181,98.3,-4.333,87.8,0,0,870.0267,0,1.541,3.189,177,3.701,4.654,0.075817,0,51.77,59.91,33.73,35.66
"2015-12-18 18:50:00",214158,0.059,115.1,-4.152,87.1,0,0,870.0296,0,1.462,3.19,177,3.683,4.663,0.2198751,0,51.82,59.91,33.75,35.66
"2015-12-18 19:00:00",214159,0.122,136,-4.193,87.5,0,0,870.2703,0,1.406,3.19,177,3.68,4.673,0.2274659,0,51.82,59.91,33.75,35.66
"2015-12-18 19:10:00",214160,0.21,306.9,-4.245,87.7,0,0,870.2816,0,1.533,3.19,178,3.651,4.678,0.1971409,0,51.82,59.91,33.75,35.66
"2015-12-18 19:20:00",214161,0.487,254.7,-4.311,87.6,0,0,870.3036,0,1.525,3.19,177,3.657,4.686,0.1895639,0,51.82,59.91,33.75,35.66
"2015-12-18 19:30:00",214162,0.386,281.9,-4.367,86.9,0,0,870.3809,0,1.372,3.191,178,3.666,4.693,0.2047362,0,51.82,59.91,33.75,35.66
"2015-12-18 19:40:00",214163,1.188,296.5,-4.395,85.8,0,0,870.5673,0,1.472,3.191,178,3.662,4.708,0.08720338,0,51.82,59.91,33.75,35.66
"2015-12-18 19:50:00",214164,0.666,255.5,-4.484,84.8,0,0,870.7727,0,1.495,3.192,178,3.671,4.706,0,0,51.82,59.91,33.75,35.66
"2015-12-18 20:00:00",214165,0.696,176.4,-4.529,85.6,0,0,870.6666,0,1.341,3.193,178,3.71,4.72,0,0,51.82,59.91,33.75,35.66
"2015-12-18 20:10:00",214166,0.59,193.6,-4.516,85.2,0,0,870.7225,0,1.382,3.192,178,3.729,4.707,0.140297,0,51.82,59.91,33.75,35.66
"2015-12-18 20:20:00",214167,0.313,227,-4.472,84.2,0,0,870.6865,0,1.404,3.193,178,3.718,4.693,0.2199337,0,51.77,59.91,33.73,35.66
"2015-12-18 20:30:00",214168,0.287,218.3,-4.467,84.9,0,0,870.7849,0,1.473,3.191,180,3.714,4.697,0.2957817,0,51.82,59.91,33.75,35.66
"2015-12-18 20:40:00",214169,0.313,204.5,-4.307,84.3,0,0,870.8755,0,1.396,3.191,179,3.708,4.701,0.4664295,0,51.77,59.91,33.73,35.66
"2015-12-18 20:50:00",214170,0.201,251.9,-4.218,84.1,0,0,871.1311,0,1.393,3.19,178,3.715,4.701,0.5460661,0,51.82,59.91,33.75,35.66
"2015-12-18 21:00:00",214171,0.399,245.6,-4.113,84.6,0,0,871.3167,0,1.443,3.19,181,3.709,4.702,0.4816004,0,51.82,59.91,33.75,35.66
"2015-12-18 21:10:00",214172,0.322,182.1,-4.052,83.7,0,0,871.4958,0,1.368,3.19,179,3.705,4.702,0.3526681,0,51.82,59.91,33.75,35.66
"2015-12-18 21:20:00",214173,1.142,164,-4.117,81,0,0,871.2281,0,1.245,3.192,193,3.705,4.703,0.087219,0,51.77,59.91,33.73,35.66
"2015-12-18 21:30:00",214174,1.069,162.1,-4.195,79.15,0,0,871.1312,0,1.245,3.192,192,3.695,4.714,0,0,51.82,59.91,33.75,35.66
"2015-12-18 21:40:00",214175,0.71,172.5,-4.181,76.97,0,0,871.0026,0,1.219,3.192,190,3.643,4.714,0,0,51.82,59.91,33.75,35.66
"2015-12-18 21:50:00",214176,0.633,151.5,-4.165,76.06,0,0,870.775,0,1.271,3.192,184,3.632,4.742,0.01137639,0,51.82,59.91,33.75,35.66
"2015-12-18 22:00:00",214177,0.634,182.2,-3.893,73.36,0,0,870.6443,0,1.287,3.188,202,3.646,4.743,0.3109547,0,51.77,59.91,33.73,35.66
"2015-12-18 22:10:00",214178,0.539,125.3,-3.558,71.03,0,0,870.6253,0,1.363,3.188,194,3.65,4.744,0.436095,0,51.77,59.91,33.73,35.66
"2015-12-18 22:20:00",214179,0.684,138.3,-3.424,70.53,0,0,870.442,0,1.782,3.182,193,3.659,4.737,0.2692412,0,51.77,59.91,33.73,35.66
"2015-12-18 22:30:00",214180,0.759,137.7,-3.204,69.61,0,0,870.2101,0,1.162,3.189,179,3.659,4.736,0.4285107,0,51.77,59.85,33.73,35.64
"2015-12-18 22:40:00",214181,1.162,259.1,-3.294,71.97,0,0,870.2333,0,1.752,3.179,196,3.659,4.733,0.5081455,0,51.82,59.91,33.75,35.66
"2015-12-18 22:50:00",214182,0.491,52.57,-2.738,68.5,0,0,870.3746,0,1.552,3.181,187,3.64,4.713,0.9404483,0,51.77,59.91,33.73,35.66
"2015-12-18 23:00:00",214183,0.581,196.7,-2.562,68.35,0,0,870.3387,0,1.301,3.181,198,3.625,4.69,0.8911506,0,51.77,59.85,33.73,35.64
"2015-12-18 23:10:00",214184,0.737,194.4,-2.4,68.5,0,0,870.324,0,1.574,3.178,208,3.624,4.718,0.7925552,0,51.77,59.85,33.73,35.64
"2015-12-18 23:20:00",214185,1.162,182.6,-2.339,69.65,0,0,870.1448,0,1.697,3.176,204,3.622,4.73,0.5650274,0,51.77,59.85,33.73,35.64
"2015-12-18 23:30:00",214186,0.943,170.8,-2.195,71.05,0,0,870.1068,0,1.423,3.178,204,3.621,4.717,0.3867973,0,51.77,59.85,33.73,35.64
"2015-12-18 23:40:00",214187,0.628,169.6,-2.17,72.28,0,0,870.0436,0,1.549,3.178,214,3.621,4.707,0.2806177,0,51.77,59.85,33.73,35.64
"2015-12-18 23:50:00",214188,0.811,164.2,-2.273,73.95,0,0,870.1511,0,1.771,3.174,222,3.621,4.715,0.2351121,0,51.77,59.85,33.73,35.64
